Change the Weather History Date:

Wednesday, June 5, 2013

  Actual Average Record
Temperature  
Mean Temperature 32 °F -  
Max Temperature 35 °F 37 °F 51 °F (2003)
Min Temperature 28 °F 29 °F 26 °F (2008)
Degree Days  
Heating Degree Days 34    
Moisture  
Dew Point 27 °F    
Average Humidity 82    
Maximum Humidity 93    
Minimum Humidity 65    
Precipitation  
Precipitation 0.07 in - - ()
Sea Level Pressure  
Sea Level Pressure 29.72 in    
Wind  
Wind Speed 10 mph (NE)    
Max Wind Speed 18 mph    
Max Gust Speed -    
Visibility 7 miles    
Events      
Averages and records for this station are not official NWS values.
T = Trace of Precipitation, MM = Missing Value Source: NWS Daily Summary

Daily Weather History Graph

Daily Weather History Graph

Search for Another Location

Airport or City:

Trip Planner

Search our weather history database for the weather conditions in past years. The results will help you decide how hot, cold, wet, or windy it might be!

Date:

Astronomy

Jun. 05, 2013 Rise Set
Actual Time 3:38 AM AKDT 2:33 AM AKDT
Civil Twilight Sun does not rise Sun does not rise
Nautical Twilight Sun does not rise Sun does not rise
Astronomical Twilight Sun does not rise Sun does not rise
Moon 3:45 AM AKDT (6/5) 10:43 PM AKDT (6/5)
Length of Visible Light 24h 00m
Length of Day
22h 55m
Waning Crescent, 7% of the Moon is Illuminated
Jun 5
Waning Crescent
Jun 8
New
Jun 16
First Quarter
Jun 23
Full
Jun 29
Last Quarter

Hourly Weather History & Observations

Time (AKDT) Temp. Windchill Dew Point Humidity Pressure Visibility Wind Dir Wind Speed Gust Speed Precip Events Conditions
12:16 AM 30.2 °F 18.1 °F 24.8 °F 80% 29.71 in 10.0 mi North 18.4 mph - N/A   Clear
12:36 AM 28.4 °F 16.6 °F 24.8 °F 86% 29.71 in 10.0 mi North 16.1 mph - N/A   Clear
12:56 AM 28.4 °F 17.0 °F 24.8 °F 86% 29.71 in 10.0 mi North 15.0 mph - N/A   Clear
1:16 AM 28.4 °F 17.5 °F 24.8 °F 86% 29.71 in 10.0 mi North 13.8 mph - N/A   Clear
1:36 AM 28.4 °F 17.0 °F 24.8 °F 86% 29.71 in 10.0 mi North 15.0 mph - N/A   Clear
1:56 AM 28.4 °F 17.5 °F 24.8 °F 86% 29.70 in 10.0 mi North 13.8 mph - N/A   Clear
2:16 AM 28.4 °F 18.5 °F 24.8 °F 86% 29.70 in 10.0 mi North 11.5 mph - N/A   Clear
2:36 AM 28.4 °F 18.5 °F 24.8 °F 86% 29.70 in 10.0 mi North 11.5 mph - N/A   Clear
2:56 AM 28.4 °F 18.5 °F 24.8 °F 86% 29.71 in 10.0 mi NNE 11.5 mph - N/A   Clear
3:16 AM 28.4 °F 18.5 °F 24.8 °F 86% 29.70 in 10.0 mi North 11.5 mph - N/A   Clear
4:16 AM 28.4 °F 19.7 °F 23.0 °F 80% 29.70 in 10.0 mi North 9.2 mph - N/A   Clear
4:36 AM 28.4 °F 18.5 °F 23.0 °F 80% 29.69 in 10.0 mi ENE 11.5 mph - N/A   Clear
4:56 AM 28.4 °F 19.1 °F 23.0 °F 80% 29.69 in 10.0 mi NE 10.4 mph - N/A   Clear
5:16 AM 28.4 °F 22.2 °F 23.0 °F 80% 29.69 in 10.0 mi NNE 5.8 mph - N/A   Clear
5:36 AM 28.4 °F 19.7 °F 23.0 °F 80% 29.69 in 10.0 mi North 9.2 mph - N/A   Clear
5:56 AM 28.4 °F 21.2 °F 24.8 °F 86% 29.68 in 10.0 mi North 6.9 mph - N/A   Clear
6:16 AM 28.4 °F 19.7 °F 24.8 °F 86% 29.68 in 10.0 mi North 9.2 mph - N/A   Clear
6:36 AM 28.4 °F 21.2 °F 24.8 °F 86% 29.68 in 10.0 mi North 6.9 mph - N/A   Clear
7:16 AM 30.2 °F 24.3 °F 24.8 °F 80% 29.68 in 10.0 mi ESE 5.8 mph - N/A   Clear
7:36 AM 30.2 °F 26.7 °F 24.8 °F 80% 29.69 in 10.0 mi ESE 3.5 mph - N/A   Clear
7:56 AM 30.2 °F 25.4 °F 24.8 °F 80% 29.69 in 10.0 mi NE 4.6 mph - N/A   Clear
8:16 AM 30.2 °F 24.3 °F 24.8 °F 80% 29.69 in 10.0 mi NE 5.8 mph - N/A   Clear
8:36 AM 30.2 °F 24.3 °F 24.8 °F 80% 29.69 in 10.0 mi NNE 5.8 mph - N/A   Clear
8:56 AM 32.0 °F 26.4 °F 24.8 °F 75% 29.69 in 10.0 mi ENE 5.8 mph - N/A   Clear
9:16 AM 30.2 °F 24.3 °F 24.8 °F 80% 29.69 in 10.0 mi North 5.8 mph - N/A   Partly Cloudy
9:56 AM 30.2 °F 23.4 °F 24.8 °F 80% 29.69 in 10.0 mi North 6.9 mph - N/A   Mostly Cloudy
10:16 AM 32.0 °F 24.8 °F 26.6 °F 80% 29.69 in 10.0 mi North 8.1 mph - N/A   Mostly Cloudy
10:36 AM 32.0 °F 25.6 °F 24.8 °F 75% 29.70 in 10.0 mi North 6.9 mph - N/A   Mostly Cloudy
10:56 AM 33.8 °F 28.6 °F 26.6 °F 75% 29.70 in 10.0 mi North 5.8 mph - N/A   Mostly Cloudy
11:16 AM 33.8 °F 28.6 °F 24.8 °F 70% 29.70 in 10.0 mi North 5.8 mph - N/A   Overcast
11:36 AM 33.8 °F - 26.6 °F 75% 29.71 in 10.0 mi Calm Calm - N/A   Overcast
11:56 AM 35.6 °F - 26.6 °F 70% 29.71 in 10.0 mi Calm Calm - N/A   Overcast
12:16 PM 33.8 °F - 26.6 °F 75% 29.71 in 10.0 mi Calm Calm - N/A   Overcast
12:36 PM 33.8 °F - 26.6 °F 75% 29.71 in 10.0 mi Calm Calm - N/A   Overcast
12:56 PM 35.6 °F 32.8 °F 26.6 °F 70% 29.72 in 10.0 mi South 3.5 mph - N/A   Overcast
1:16 PM 35.6 °F 32.8 °F 24.8 °F 65% 29.72 in 10.0 mi SSW 3.5 mph - N/A   Overcast
1:36 PM 33.8 °F 29.6 °F 24.8 °F 70% 29.73 in 10.0 mi SW 4.6 mph - N/A   Overcast
1:56 PM 35.6 °F 32.8 °F 24.8 °F 65% 29.73 in 10.0 mi SW 3.5 mph - N/A   Overcast
2:16 PM 35.6 °F 31.7 °F 26.6 °F 70% 29.73 in 10.0 mi West 4.6 mph - N/A   Overcast
2:36 PM 35.6 °F 31.7 °F 26.6 °F 70% 29.74 in 10.0 mi WSW 4.6 mph - N/A   Overcast
2:56 PM 33.8 °F 28.6 °F 26.6 °F 75% 29.74 in 5.0 mi WSW 5.8 mph - N/A   Overcast
3:16 PM 33.8 °F 29.6 °F 28.4 °F 81% 29.74 in 2.0 mi West 4.6 mph - N/A   Overcast
3:36 PM 32.0 °F 27.5 °F 28.4 °F 87% 29.75 in 2.0 mi WNW 4.6 mph - N/A   Overcast
4:16 PM 32.0 °F 28.7 °F 28.4 °F 87% 29.75 in 1.5 mi NNW 3.5 mph - N/A   Overcast
4:36 PM 32.0 °F - 28.4 °F 87% 29.75 in 1.0 mi Calm Calm - N/A   Overcast
4:56 PM 33.8 °F 29.6 °F 30.2 °F 87% 29.75 in 0.8 mi ESE 4.6 mph - N/A   Overcast
5:16 PM 33.8 °F 28.6 °F 30.2 °F 87% 29.75 in 0.5 mi ESE 5.8 mph - N/A   Overcast
5:36 PM 33.8 °F 27.7 °F 30.2 °F 87% 29.76 in 0.8 mi ESE 6.9 mph - N/A   Overcast
5:56 PM 33.8 °F 27.0 °F 30.2 °F 87% 29.76 in 0.8 mi ESE 8.1 mph - 0.02 in   Overcast
6:16 PM 33.8 °F 26.4 °F 30.2 °F 87% 29.76 in 0.8 mi ESE 9.2 mph - 0.01 in   Overcast
6:36 PM 33.8 °F 26.4 °F 30.2 °F 87% 29.76 in 1.0 mi ESE 9.2 mph - 0.02 in   Overcast
6:56 PM 33.8 °F 26.4 °F 30.2 °F 87% 29.76 in 1.5 mi ESE 9.2 mph - 0.02 in   Overcast
7:16 PM 33.8 °F 27.7 °F 30.2 °F 87% 29.76 in 1.2 mi ESE 6.9 mph - 0.01 in   Overcast
7:36 PM 33.8 °F 27.7 °F 30.2 °F 87% 29.76 in 1.5 mi ESE 6.9 mph - 0.01 in   Overcast
7:56 PM 32.0 °F 24.8 °F 30.2 °F 93% 29.75 in 1.5 mi ESE 8.1 mph - 0.01 in   Overcast
8:16 PM 33.8 °F 27.7 °F 30.2 °F 87% 29.75 in 1.8 mi East 6.9 mph - 0.01 in   Overcast
8:36 PM 32.0 °F 24.2 °F 30.2 °F 93% 29.75 in 2.0 mi ESE 9.2 mph - 0.01 in   Overcast
8:56 PM 33.8 °F 26.4 °F 30.2 °F 87% 29.74 in 3.0 mi ESE 9.2 mph - 0.01 in   Overcast
9:16 PM 33.8 °F 26.4 °F 30.2 °F 87% 29.75 in 2.5 mi East 9.2 mph - N/A   Overcast
9:36 PM 33.8 °F 26.4 °F 30.2 °F 87% 29.74 in 3.0 mi East 9.2 mph - N/A   Overcast
9:56 PM 33.8 °F 26.4 °F 30.2 °F 87% 29.74 in 4.0 mi East 9.2 mph - N/A   Overcast
10:16 PM 33.8 °F 26.4 °F 30.2 °F 87% 29.74 in 10.0 mi ENE 9.2 mph - N/A   Overcast
10:36 PM 33.8 °F 27.0 °F 30.2 °F 87% 29.74 in 10.0 mi ENE 8.1 mph - N/A   Overcast
10:56 PM 33.8 °F 27.0 °F 30.2 °F 87% 29.74 in 7.0 mi ENE 8.1 mph - 0.01 in   Overcast
11:16 PM 33.8 °F 25.8 °F 30.2 °F 87% 29.74 in 7.0 mi East 10.4 mph - N/A   Overcast
11:36 PM 33.8 °F 26.4 °F 30.2 °F 87% 29.74 in 7.0 mi East 9.2 mph - N/A   Overcast
11:56 PM 33.8 °F 26.4 °F 30.2 °F 87% 29.74 in 5.0 mi East 9.2 mph - N/A   Overcast